Вернуться в каталог

STARLINK-34369

АктивенСвязьVLEO
NORAD 64297·PAYLOAD·🇺🇸 United States

Запущен Jun 8, 2025 с Vandenberg Space Force Base

Loading…

Ближайшие Пролёты (ближайшие 24 часа)

TLE

СвежийSource: CelesTrak SupGP

Эпоха: Sep 15, 2026, 03:11 UTC

1 64297C 25123G   26258.13312500 -.00050049  00000+0 -17412-2 0  2583
2 64297  70.0000  75.2563 0003169 271.8475 103.9650 15.29601283    10

Отслеживайте STARLINK-34369 в реальном времени с AllMySat

Download on the App Store